Content
SEND FEEDBACK

Daily
Averages
Monthly
Summary
United States of America

SAULT STE. MARIE, MICHIGAN


Home > North America > United States > Michigan
Elevation: 699 feet     Latitude: 46 28N     Longitude: 084 22W

WEATHER
 
SELECT A DAY
Number of Records: 220,836;   Date Range: 1/1/95 - 12/17/14
 
SHARE

PRINT THIS DATA

[ ← Previous Day ]
WEATHER ALMANAC - AUGUST 18, 2013
[ Next Day → ]
[ °C ]   °F
Weather ElementAverageHighLow
Temperature67.7 °F79 °F (12:55 pm)55.9 °F (6:55 am)
Dewpoint56.9 °F62.1 °F (11:55 am)53.1 °F (2:55 am)
Humidity70.3 %93 % (4:55 am)52 % (12:55 pm)
Barometer30.12 in30.17 in (2:55 am)30.05 in (10:55 pm)
Wind Speed4.7 mph9.2 mph (12:55 pm)
Weather ElementAverage
Visibility10 mi
Wind DirectionSSE (154.8 °)

Weather ElementTotal
Precipitation---
Cooling Degree Days2.5 (Base 65)
Growing Degree Days17.5 (Base 50)
Averaged from 23 records on August 18, 2013
WEATHER CONDITIONS BREAKOUT
WIND DIRECTION BREAKOUT
WEATHER BY HOUR - AUGUST 18, 2013
[ °C ]   °F
Local TimeTemperatureDewpointHumidityBarometerVisibilityWind DirectionWind SpeedGust SpeedPrecipitationEventsConditions
1:55 AM59.0 °F54.0 °F83 %30.16 in10.0 miNE (50°)3.5 mphClear
2:55 AM57.0 °F53.1 °F87 %30.17 in10.0 miCalmClear
3:55 AM57.9 °F54.0 °F87 %30.16 in10.0 miCalmClear
4:55 AM57.0 °F55.0 °F93 %30.16 in9.0 miEast (90°)3.5 mphClear
5:55 AM57.0 °F54.0 °F89 %30.16 in10.0 miCalmClear
6:55 AM55.9 °F54.0 °F93 %30.17 in10.0 miCalmClear
7:55 AM59.0 °F55.9 °F90 %30.17 in10.0 miCalmClear
8:55 AM63.0 °F57.9 °F84 %30.17 in10.0 miSouth (190°)4.6 mphClear
9:55 AM69.1 °F60.1 °F73 %30.16 in10.0 miVariable4.6 mphClear
10:55 AM72.0 °F60.1 °F66 %30.16 in10.0 miSW (220°)5.8 mphClear
11:55 AM75.9 °F62.1 °F62 %30.14 in10.0 miSW (230°)8.1 mphClear
12:55 PM79.0 °F60.1 °F52 %30.13 in10.0 miSW (220°)9.2 mphClear
1:55 PM77.0 °F59.0 °F54 %30.12 in10.0 miWSW (250°)9.2 mphClear
2:55 PM78.1 °F61.0 °F56 %30.11 in10.0 miWest (260°)5.8 mphClear
3:55 PM78.1 °F60.1 °F54 %30.10 in10.0 miSW (230°)5.8 mphClear
4:55 PM78.1 °F59.0 °F52 %30.09 in10.0 miWest (280°)4.6 mphClear
5:55 PM75.9 °F57.9 °F54 %30.09 in10.0 miSSW (210°)8.1 mphClear
6:55 PM73.9 °F57.0 °F55 %30.09 in10.0 miSW (220°)8.1 mphClear
7:55 PM73.0 °F55.9 °F55 %30.06 in10.0 miSW (220°)5.8 mphClear
8:55 PM68.0 °F54.0 °F61 %30.06 in10.0 miSW (230°)5.8 mphClear
9:55 PM66.9 °F54.0 °F63 %30.06 in10.0 miWSW (250°)5.8 mphClear
10:55 PM64.0 °F55.0 °F73 %30.05 in10.0 miSSW (210°)6.9 mphClear
11:55 PM62.1 °F55.9 °F80 %30.05 in10.0 miSSW (200°)3.5 mphClear
Hourly data recorded from KANJ, located miles away from Sault Ste. Marie, Michigan







STORIES FROM OUR PARTNERS